Weather Roundup
Issued by NWS Chicago, IL

Home | Current Version | Previous Version | Graphics & Text | Print | Product List | Glossary On
Versions: 1 2 3 4 5 6 7 8 9 10 11 12 13 14 15 16 17 18 19 20 21 22 23 24 25 26 27 28 29 30 31 32 33 34 35 36 37 38 39 40 41 42 43 44 45 46 47 48 49 50
600
NZUS59 KLOT 240508
HRRLOT

CHICAGO AREA WEATHER ROUNDUP
NATIONAL WEATHER SERVICE CHICAGO/ROMEOVILLE IL
1200 AM CDT TUE MAY 24 2016

NOTE: "FAIR" INDICATES FEW OR NO CLOUDS BELOW 12,000 FEET WITH NO
SIGNIFICANT WEATHER AND/OR OBSTRUCTIONS TO VISIBILITY.

* THESE STATIONS ARE NOT UNDER NWS QUALITY CONTROL. THEY ALSO MAY NOT
  REPORT WEATHER SUCH AS PRECIPITATION OR FOG.

ILZ005-006-012>014-019>023-240600-
NORTHEAST ILLINOIS

CITY           SKY/WX    TMP DP  RH WIND       PRES   REMARKS
OHARE          CLOUDY    62  43  49 S6        29.93R
MIDWAY         MOCLDY    71  38  29 S6        29.94R
AURORA         CLOUDY    65  48  54 S6        29.94R
LANSING*       PTCLDY    63  40  43 SE3       29.96R
JOLIET*        PTCLDY    67  46  46 S5        29.95R
WAUKEGAN       CLOUDY    61  44  53 SE5       29.92S
DUPAGE AIRPORT CLEAR     63  42  46 S7        29.93R
WHEELING       CLOUDY    61  43  51 CALM      29.94R
KANKAKEE*      MOCLDY   N/A N/A N/A S7        29.96S
MORRIS*        CLOUDY    67  46  47 S6        29.93R
LEWIS AIRPORT* CLOUDY    62  41  45 S7        29.95R
$$

WIZ051-052-058>065-066-070>072-240600-
SOUTHEAST WISCONSIN

CITY           SKY/WX    TMP DP  RH WIND       PRES   REMARKS
MILWAUKEE      CLOUDY    62  38  40 S7        29.92S
KENOSHA*       CLOUDY    61  41  47 S7        29.92F
RACINE*        CLOUDY    62  40  44 S10       29.94S
BURLINGTON     CLOUDY    54  44  69 CALM      29.92S
WAUKESHA       CLOUDY    61  36  39 S5        29.93S
WEST BEND      CLOUDY    61  34  36 S3        29.91S
$$

INZ001>003-010>013-019-020-240600-
NORTHWEST INDIANA

CITY           SKY/WX    TMP DP  RH WIND       PRES   REMARKS
GARY*          CLEAR     68  47  46 S7        29.96R
MICHIGAN CITY* NOT AVBL
RENSSELAER*    NOT AVBL
VALPARAISO     CLEAR     64  35  34 SE6       29.98R
$$

LMZ740>746-240600-
SOUTHERN LAKE MICHIGAN

STATION/POSITION TIME  SKY/WX   TEMP WIND        PRES    VSBY
                                AIR  DIR/SP/G
                 (UTC)          (F)  (DEG/KT/KT) (MB)    (MI)
HARRISON CRIB    0400            64  160/ 10/ 12   N/A
BURNHAM HARBOR   0500            64  180/  7       N/A
CALUMET HARBOR   0400            71  170/  7/  9 1013.2R
BURNS HARBOR     0500            70  160/  9/ 19 1014.9R
MICHIGAN CITY    0400            69  130/ 11/ 15   N/A
$$

ABBREVIATIONS USED IN REMARKS
   TC - TEMPERATURE IN CELSIUS
  WCI - WIND CHILL INDEX
   HX - HEAT INDEX
  VSB - VISIBILITY
$$




USA.gov is the U.S. government's official web portal to all federal, state and local government web resources and services.